Simultaneous Nadir Overpasses (SNOs) Predictions

Prediction of SNOs between AQUA and METOP-C Satellite Orbit:

Table of predicted SNOs for the next 14.0 days since TLE Epoch: 5/21/2022
Index Date (AQUA) Time (AQUA) Lat,Lon (AQUA) SZA (AQUA ) Date (METOP-C) Time (METOP-C) Lat,Lon (METOP-C) SZA (METOP-C ) Distance(km) Time Diff (sec)
1 05/21/2022 21:21:27 -73.84, 34.34 126.52 05/21/2022 21:20:26 -73.84, 34.30 126.51 1.32 61
2 05/21/2022 22:10:55 73.89,-158.13 53.53 05/21/2022 22:11:05 73.89,-158.24 53.53 3.48 10
3 05/21/2022 23:00:28 -74.28, 8.61 126.06 05/21/2022 23:01:38 -74.30, 10.12 126.08 45.39 70
4 05/24/2022 16:55:15 -73.89, 100.80 127.00 05/24/2022 16:54:44 -73.87, 100.80 127.02 2.15 31
5 05/24/2022 17:44:43 73.94, -91.69 53.06 05/24/2022 17:45:22 73.96, -91.65 53.07 1.85 39
6 05/27/2022 11:39:35 73.81, -0.11 52.44 05/27/2022 11:38:23 73.80, -0.28 52.44 5.76 72
7 05/27/2022 12:29:02 -73.89, 167.37 127.49 05/27/2022 12:29:03 -73.89, 167.27 127.48 2.98 1
8 05/27/2022 13:18:30 73.95, -25.13 52.57 05/27/2022 13:19:41 73.97, -25.21 52.59 3.43 71
9 05/30/2022 07:13:22 73.87, 66.34 52.06 05/30/2022 07:12:41 73.85, 66.26 52.05 3.24 41
10 05/30/2022 08:02:49 -73.94,-126.18 127.87 05/30/2022 08:03:21 -73.96,-126.16 127.86 1.69 32
11 06/02/2022 01:57:36 -73.71, -34.36 128.50 06/02/2022 01:56:24 -73.64, -35.16 128.53 26.02 72
12 06/02/2022 02:47:07 73.93, 132.79 51.73 06/02/2022 02:46:58 73.89, 132.78 51.70 3.71 9
13 06/02/2022 03:36:34 -74.00, -59.73 128.20 06/02/2022 03:37:38 -74.01, -59.61 128.20 3.82 64



Historial Predications of SNOs between AQUA and METOP-C
